Regional Weather Roundup
Issued by NWS

Home | Current Version | Previous Version | Text Only | Print | Product List | Glossary On
Versions: 1 2 3 4 5 6 7 8 9 10 11 12 13 14 15 16 17 18 19 20 21 22 23 24 25 26 27 28 29 30 31 32 33 34 35 36 37 38 39 40 41 42 43 44 45 46 47 48 49 50
000
ASUS43 KMPX 301510
RWRMN
WEATHER ROUNDUP FOR MINNESOTA
NATIONAL WEATHER SERVICE TWIN CITIES/CHANHASSEN MN
900 AM CST FRI JAN 30 2015


NOTE: "FAIR" INDICATES FEW OR NO CLOUDS BELOW 12,000 FEET WITH NO
SIGNIFICANT WEATHER AND/OR OBSTRUCTIONS TO VISIBILITY. N/A MEANS
CURRENT SKY AND/OR WEATHER CONDITIONS ARE NOT AVAILABLE.

MNZ060>063-068>070-301600-
   Twin Cities Metro

CITY           SKY/WX    TMP DP  RH WIND       PRES   REMARKS
TWIN CITIES    PTSUNNY   12   4  70 S6        30.53S WCI   3
ST PAUL        PTSUNNY   12   4  70 SE3       30.55S
CRYSTAL        CLOUDY    13   5  70 SE5       30.51F WCI   5
BLAINE         PTSUNNY   12   7  79 E3        30.51F
LAKEVILLE      PTSUNNY   10   7  85 S5        30.51F WCI   2
EDEN PRAIRIE   PTSUNNY   14   8  77 S7        30.50F WCI   4
SOUTH ST PAUL  MOSUNNY   13   6  72 CALM      30.53F
LAKE ELMO      PTSUNNY   10   5  79 CALM      30.53F
$$
MNZ001>005-007-008-013>017-022>024-027-028-301600-
   Northwest Minnesota

CITY           SKY/WX    TMP DP  RH WIND       PRES   REMARKS
BEMIDJI        MOCLDY     5   1  83 S8        30.36F WCI  -8
HALLOCK        CLOUDY     9   5  85 S16       30.31F WCI  -9
ROSEAU         CLOUDY     5   0  78 S8        30.33F WCI  -8
WARROAD        LGT SNOW   3  -2  78 S8        30.34F WCI -10
THIEF RVR FALL CLOUDY     9   7  92 S10       30.32F WCI  -6
CROOKSTON      CLOUDY    10   7  85 S16       30.36F WCI  -7
FOSSTON        MOCLDY     7   1  78 S10       30.35F WCI  -8
DETROIT LAKES  FAIR      10   7  85 S7        30.39S WCI   0
MOORHEAD       CLOUDY    12  10  92 SE15      30.39F WCI  -4
PARK RAPIDS    CLOUDY     8   3  80 S7        30.38F WCI  -3
MAHNOMEN       CLOUDY     9   4  80 S9        30.36F WCI  -4
$$
MNZ006-009>011-018-025>026-301600-
   North Central Minnesota

CITY           SKY/WX    TMP DP  RH WIND       PRES   REMARKS
BAUDETTE       CLOUDY     0  -5  79 SE5       30.35F WCI -10
FLAG ISLAND    CLOUDY     1  -2  85 S16       30.33F WCI -18
INTL FALLS     CLOUDY    -5  -9  83 SE3       30.39F
WASKISH        CLOUDY     3   0  85 CALM      30.36F
BIG FORK       PTCLDY     1  -2  85 S3        30.38F
LONGVILLE      PTSUNNY    5   1  85 S5        30.41F WCI  -4
GRAND RAPIDS   CLOUDY     3  -2  78 S7        30.38F WCI  -9
CRANE LAKE     CLOUDY    -6  -9  84 CALM      30.44F
ORR            CLOUDY    -6  -9  84 CALM      30.37F
COOK           MOSUNNY   -2  -8  78 CALM      30.41S
WALKER         CLOUDY     5   1  83 S5        30.38F WCI  -4
$$
MNZ012-019>021-037-301600-
   Northeast Minnesota

CITY           SKY/WX    TMP DP  RH WIND       PRES   REMARKS
DULUTH         PTSUNNY    2  -3  80 CALM      30.42S
ELY            MOSUNNY   -2  -8  78 S5        30.40F WCI -12
HIBBING        CLOUDY     0  -6  76 CALM      30.41F
EVELETH        MOSUNNY    0  -4  85 CALM      30.42F
DULUTH HARBOR  PTSUNNY    5   0  78 CALM      30.52F
TWO HARBORS    FAIR       3  -2  78 SW5       30.43F WCI  -6
SILVER BAY     MOSUNNY    3  -2  78 CALM      30.42F
GRAND MARAIS     N/A      7  -3  64 VRB3      30.49F
G MARAIS ARPRT MOSUNNY    0  -8  71 CALM      30.35S
$$
MNZ029>031-032-039>041-046>048-054>057-064-301600-
   West Central Minnesota

CITY           SKY/WX    TMP DP  RH WIND       PRES   REMARKS
FERGUS FALLS   CLOUDY    10   3  72 SE12      30.45F WCI  -4
WHEATON        CLOUDY    12  10  92 SE14      30.43F WCI  -3
MORRIS         CLOUDY    12   9  85 SE10      30.43S WCI  -1
ALEXANDRIA     PTSUNNY   10   5  80 SE6       30.42F WCI   0
ELBOW LAKE     CLOUDY    11   6  83 SE9       30.42F WCI  -2
WADENA         PTCLDY     9   3  78 S8        30.40F WCI  -4
GLENWOOD       PTSUNNY   10   7  85 S9        30.43F WCI  -2
APPLETON       CLOUDY    16  10  79 SE9       30.44F WCI   4
BENSON         CLOUDY    12   9  85 S6        30.45F WCI   3
ORTONVILLE     CLOUDY    16  12  86 SE9       30.42F WCI   4
MADISON        CLOUDY    25  19  80 SE8       30.43F WCI  16
WILLMAR        FAIR      14   9  79 CALM      30.48S
$$
MNZ033>034-036-042>043-049>051-058-059-301600-
   Central Minnesota

CITY           SKY/WX    TMP DP  RH WIND       PRES   REMARKS
ST CLOUD       MOSUNNY   11   6  81 S8        30.49S WCI  -1
SAUK CENTRE    PTSUNNY   10   6  82 S7        30.45S WCI   0
PAYNESVILLE    MOSUNNY   10   6  87 SE7       30.47F WCI  -1
AITKIN         PTSUNNY   10   3  72 S6        30.43S WCI   1
PINE RIVER     MOSUNNY    7   1  78 S7        30.44F WCI  -5
BRAINERD       MOSUNNY    8   3  80 S8        30.44F WCI  -4
STAPLES        PTSUNNY    9   5  85 S7        30.42F WCI  -3
LONG PRAIRIE   FAIR      10   5  79 SE8       30.44F WCI  -1
LITTLE FALLS   MOSUNNY   10   5  79 SE5       30.47F WCI   2
LITCHFIELD     MOSUNNY   14  10  85 CALM      30.49S
BUFFALO        MOSUNNY   13   8  80 S5        30.52S WCI   5
MAPLE LAKE     PTSUNNY   14  10  85 S5        30.51R WCI   6
$$
MNZ037-044-045-052-053-301600-
   East Central Minnesota

CITY           SKY/WX    TMP DP  RH WIND       PRES   REMARKS
PRINCETON      PTSUNNY   10   7  85 SE6       30.50R WCI   1
MORA           MOSUNNY    9   3  78 CALM      30.51S
CAMBRIDGE      CLOUDY    10   1  67 S5        30.49S WCI   2
RUSH CITY      CLOUDY     8   1  75 CALM      30.51F
MOOSE LAKE     CLOUDY     7   1  78 CALM      30.45F
HINCKLEY       PTSUNNY    9   3  78 CALM      30.50R
CLOQUET        CLOUDY     1  -2  85 CALM      30.44S
MCGREGOR       CLOUDY     9   3  78 S6        30.44F WCI  -1
$$
MNZ071>073-080-081-089-090-097-098-301600-
   Southwest Minnesota

CITY           SKY/WX    TMP DP  RH WIND       PRES   REMARKS
MONTEVIDEO     CLOUDY    16  12  86 S5        30.47F WCI   9
GRANITE FALLS  CLOUDY    15  11  84 E7        30.48F WCI   5
CANBY          CLOUDY    21  19  89 S6        30.43F WCI  14
MARSHALL       CLOUDY    19  14  79 SW8       30.45F WCI   9
REDWOOD FALLS  PTSUNNY   14   9  80 S5        30.49F WCI   6
OLIVIA         MOSUNNY   14  10  85 S6        30.48S WCI   5
PIPESTONE      CLOUDY    21  18  86 SW13      30.42F WCI   9
WINDOM         SUNNY     16  12  86 S7        30.46S WCI   6
WORTHINGTON    CLOUDY    16  12  86 S9        30.46F WCI   4
JACKSON        SUNNY     16  12  86 S7        30.47S WCI   6
TRACY          CLOUDY    19  16  90 SW15      30.45F WCI   5
SLAYTON        CLOUDY    19  17  92 SW15      30.43F WCI   4
$$
MNZ065>067-074>077-082>085-091>093-301600-
   South Central Minnesota

CITY           SKY/WX    TMP DP  RH WIND       PRES   REMARKS
MANKATO        MOSUNNY   12   9  85 S6        30.50F WCI   3
NEW ULM        MOSUNNY   12   9  85 S5        30.50F WCI   4
ST JAMES       SUNNY     16  10  79 S5        30.52R WCI   9
FAIRMONT       SUNNY     16   9  73 S6        30.49R WCI   7
GLENCOE        PTSUNNY   15  11  85 S3        30.49S
FARIBAULT      MOSUNNY   12  10  92 S3        30.50F
OWATONNA       MOSUNNY   12   9  85 S3        30.50S
WASECA         SUNNY     14  10  85 CALM      30.53R
ALBERT LEA     SUNNY     14  12  92 CALM      30.49S
$$
MNZ078>079-086>088-094>096-301600-
   Southeast Minnesota

CITY           SKY/WX    TMP DP  RH WIND       PRES   REMARKS
ROCHESTER      MOSUNNY    9   6  88 S3        30.51R
RED WING       PTSUNNY   12   3  67 SE3       30.54R
STANTON        PTSUNNY   14   8  76 S3        30.51S
DODGE CENTER   MOSUNNY   12   7  79 S5        30.50R WCI   4
WINONA         MOSUNNY   14   7  73 CALM      30.56R
AUSTIN         SUNNY     12   9  85 S3        30.50S
PRESTON        MOSUNNY   10   6  84 CALM      30.51R
$$
ABBREVIATIONS USED IN REMARKS
   TC - TEMPERATURES IN CELSIUS
  WCI - WIND CHILL INDEX
   HX - HEAT INDEX
  VSB - VISIBILITY
$$



USA.gov is the U.S. government's official web portal to all federal, state and local government web resources and services.